owner,sensor,date,latitude,longitude,vertical_datum,wind_speed,wind_to_direction,wind_speed_of_gust,qcFlag 
COMPS,ioos:station:USF.COMPS:ARP:1,2014-10-01T00:00:00Z,28.4330,-82.6670,10.0,0.45,91.39,0.88,'1111122,1111122,1111122' 
COMPS,ioos:station:USF.COMPS:ARP:1,2014-10-01T00:06:00Z,28.4330,-82.6670,10.0,0.66,88.07,0.97,'1111122,1111122,1111122' 
COMPS,ioos:station:USF.COMPS:ARP:1,2014-10-01T00:12:00Z,28.4330,-82.6670,10.0,0.86,77.4,1.27,'1111122,1111122,1111122' 
COMPS,ioos:station:USF.COMPS:ARP:1,2014-10-01T00:18:00Z,28.4330,-82.6670,10.0,0.66,97.15,1.07,'1111122,1111122,1111122' 
COMPS,ioos:station:USF.COMPS:ARP:1,2014-10-01T00:24:00Z,28.4330,-82.6670,10.0,0.81,95.42,1.07,'1111122,1111122,1111122' 
COMPS,ioos:station:USF.COMPS:ARP:1,2014-10-01T00:30:00Z,28.4330,-82.6670,10.0,0.89,84.56,1.27,'1111122,1111122,1111122' 
COMPS,ioos:station:USF.COMPS:ARP:1,2014-10-01T00:36:00Z,28.4330,-82.6670,10.0,0.47,75.88,0.68,'1111122,1111122,1111122' 
COMPS,ioos:station:USF.COMPS:ARP:1,2014-10-01T00:42:00Z,28.4330,-82.6670,10.0,0.49,73.27,0.88,'1111122,1111122,1111122' 
COMPS,ioos:station:USF.COMPS:ARP:1,2014-10-01T00:48:00Z,28.4330,-82.6670,10.0,0.75,78.06,0.97,'1111122,1111122,1111122' 
COMPS,ioos:station:USF.COMPS:ARP:1,2014-10-01T00:54:00Z,28.4330,-82.6670,10.0,0.68,94.7,1.17,'1111122,1111122,1111122' 
COMPS,ioos:station:USF.COMPS:ARP:1,2014-10-01T01:00:00Z,28.4330,-82.6670,10.0,0.94,92.31,1.27,'1111122,1111122,1111122' 
COMPS,ioos:station:USF.COMPS:ARP:1,2014-10-01T01:06:00Z,28.4330,-82.6670,10.0,0.87,87.06,1.27,'1111122,1111122,1111122' 
COMPS,ioos:station:USF.COMPS:ARP:1,2014-10-01T01:12:00Z,28.4330,-82.6670,10.0,1.17,75.4,1.76,'1111122,1111122,1111122' 
COMPS,ioos:station:USF.COMPS:ARP:1,2014-10-01T01:18:00Z,28.4330,-82.6670,10.0,1.84,72.72,2.45,'1111122,1111122,1111122' 
COMPS,ioos:station:USF.COMPS:ARP:1,2014-10-01T01:24:00Z,28.4330,-82.6670,10.0,2.16,73.62,2.84,'1111122,1111122,1111122' 
COMPS,ioos:station:USF.COMPS:ARP:1,2014-10-01T01:30:00Z,28.4330,-82.6670,10.0,1.95,79.09,2.84,'1111122,1111122,1111122' 
COMPS,ioos:station:USF.COMPS:ARP:1,2014-10-01T01:36:00Z,28.4330,-82.6670,10.0,1.8,82.99,2.25,'1111122,1111122,1111122' 
COMPS,ioos:station:USF.COMPS:ARP:1,2014-10-01T01:42:00Z,28.4330,-82.6670,10.0,1.97,75.49,2.54,'1111122,1111122,1111122' 
COMPS,ioos:station:USF.COMPS:ARP:1,2014-10-01T01:48:00Z,28.4330,-82.6670,10.0,2.07,78.5,2.93,'1111122,1111122,1111122' 
COMPS,ioos:station:USF.COMPS:ARP:1,2014-10-01T01:54:00Z,28.4330,-82.6670,10.0,2.43,73.55,3.23,'1111122,1111122,1111122' 
COMPS,ioos:station:USF.COMPS:ARP:1,2014-10-01T02:00:00Z,28.4330,-82.6670,10.0,2.72,74.08,3.62,'1111122,1111122,1111122' 
COMPS,ioos:station:USF.COMPS:ARP:1,2014-10-01T02:06:00Z,28.4330,-82.6670,10.0,2.52,76.5,3.82,'1111122,1111122,1111122' 
COMPS,ioos:station:USF.COMPS:ARP:1,2014-10-01T02:12:00Z,28.4330,-82.6670,10.0,2.98,78.08,4.01,'1111122,1111122,1111122' 
COMPS,ioos:station:USF.COMPS:ARP:1,2014-10-01T02:18:00Z,28.4330,-82.6670,10.0,2.76,78.84,3.72,'1111122,1111122,1111122' 
COMPS,ioos:station:USF.COMPS:ARP:1,2014-10-01T02:24:00Z,28.4330,-82.6670,10.0,2.9,81.83,3.91,'1111122,1111122,1111122' 
COMPS,ioos:station:USF.COMPS:ARP:1,2014-10-01T02:30:00Z,28.4330,-82.6670,10.0,2.86,84.57,4.6,'1111122,1111122,1111122' 
COMPS,ioos:station:USF.COMPS:ARP:1,2014-10-01T02:36:00Z,28.4330,-82.6670,10.0,2.78,80.66,3.82,'1111122,1111122,1111122' 
COMPS,ioos:station:USF.COMPS:ARP:1,2014-10-01T02:42:00Z,28.4330,-82.6670,10.0,3.47,78.82,4.9,'1111122,1111122,1111122' 
COMPS,ioos:station:USF.COMPS:ARP:1,2014-10-01T02:48:00Z,28.4330,-82.6670,10.0,3.16,83.68,5.68,'1111122,1111122,1111122' 
COMPS,ioos:station:USF.COMPS:ARP:1,2014-10-01T02:54:00Z,28.4330,-82.6670,10.0,3.3,84.2,5.58,'1111122,1111122,1111122' 
COMPS,ioos:station:USF.COMPS:ARP:1,2014-10-01T03:00:00Z,28.4330,-82.6670,10.0,3.65,80.86,5.19,'1111122,1111122,1111122' 
COMPS,ioos:station:USF.COMPS:ARP:1,2014-10-01T03:06:00Z,28.4330,-82.6670,10.0,3.09,84.2,4.5,'1111122,1111122,1111122' 
COMPS,ioos:station:USF.COMPS:ARP:1,2014-10-01T03:12:00Z,28.4330,-82.6670,10.0,2.95,89.27,4.8,'1111122,1111122,1111122' 
COMPS,ioos:station:USF.COMPS:ARP:1,2014-10-01T03:18:00Z,28.4330,-82.6670,10.0,2.78,90.57,4.31,'1111122,1111122,1111122' 
COMPS,ioos:station:USF.COMPS:ARP:1,2014-10-01T03:24:00Z,28.4330,-82.6670,10.0,2.06,93.7,3.82,'1111122,1111122,1111122' 
COMPS,ioos:station:USF.COMPS:ARP:1,2014-10-01T03:30:00Z,28.4330,-82.6670,10.0,2.29,108.47,3.72,'1111122,1111122,1111122' 
COMPS,ioos:station:USF.COMPS:ARP:1,2014-10-01T03:36:00Z,28.4330,-82.6670,10.0,2.64,103.86,3.62,'1111122,1111122,1111122' 
COMPS,ioos:station:USF.COMPS:ARP:1,2014-10-01T03:42:00Z,28.4330,-82.6670,10.0,2.92,105.19,5.09,'1111122,1111122,1111122' 
COMPS,ioos:station:USF.COMPS:ARP:1,2014-10-01T03:48:00Z,28.4330,-82.6670,10.0,2.81,97.95,4.01,'1111122,1111122,1111122' 
COMPS,ioos:station:USF.COMPS:ARP:1,2014-10-01T03:54:00Z,28.4330,-82.6670,10.0,3.16,91.37,4.7,'1111122,1111122,1111122' 
COMPS,ioos:station:USF.COMPS:ARP:1,2014-10-01T04:00:00Z,28.4330,-82.6670,10.0,3.5,93.56,6.46,'1111122,1111122,1111122' 
COMPS,ioos:station:USF.COMPS:ARP:1,2014-10-01T04:06:00Z,28.4330,-82.6670,10.0,2.9,93.88,4.5,'1111122,1111122,1111122' 
COMPS,ioos:station:USF.COMPS:ARP:1,2014-10-01T04:12:00Z,28.4330,-82.6670,10.0,2.87,94.24,4.5,'1111122,1111122,1111122' 
COMPS,ioos:station:USF.COMPS:ARP:1,2014-10-01T04:18:00Z,28.4330,-82.6670,10.0,2.45,96.94,4.41,'1111122,1111122,1111122' 
COMPS,ioos:station:USF.COMPS:ARP:1,2014-10-01T04:24:00Z,28.4330,-82.6670,10.0,3.02,100.54,4.41,'1111122,1111122,1111122' 
COMPS,ioos:station:USF.COMPS:ARP:1,2014-10-01T04:30:00Z,28.4330,-82.6670,10.0,2.71,98.82,4.99,'1111122,1111122,1111122' 
COMPS,ioos:station:USF.COMPS:ARP:1,2014-10-01T04:36:00Z,28.4330,-82.6670,10.0,3.09,94.0,5.19,'1111122,1111122,1111122' 
COMPS,ioos:station:USF.COMPS:ARP:1,2014-10-01T04:42:00Z,28.4330,-82.6670,10.0,2.93,90.29,4.9,'1111122,1111122,1111122' 
COMPS,ioos:station:USF.COMPS:ARP:1,2014-10-01T04:48:00Z,28.4330,-82.6670,10.0,3.31,89.89,4.5,'1111122,1111122,1111122' 
COMPS,ioos:station:USF.COMPS:ARP:1,2014-10-01T04:54:00Z,28.4330,-82.6670,10.0,2.68,92.52,4.11,'1111122,1111122,1111122' 
COMPS,ioos:station:USF.COMPS:ARP:1,2014-10-01T05:00:00Z,28.4330,-82.6670,10.0,2.29,92.7,3.62,'1111122,1111122,1111122' 
COMPS,ioos:station:USF.COMPS:ARP:1,2014-10-01T05:06:00Z,28.4330,-82.6670,10.0,2.39,93.4,3.23,'1111122,1111122,1111122' 
COMPS,ioos:station:USF.COMPS:ARP:1,2014-10-01T05:12:00Z,28.4330,-82.6670,10.0,2.44,85.95,4.21,'1111122,1111122,1111122' 
COMPS,ioos:station:USF.COMPS:ARP:1,2014-10-01T05:18:00Z,28.4330,-82.6670,10.0,2.52,87.55,4.41,'1111122,1111122,1111122' 
COMPS,ioos:station:USF.COMPS:ARP:1,2014-10-01T05:24:00Z,28.4330,-82.6670,10.0,2.77,88.44,3.91,'1111122,1111122,1111122' 
COMPS,ioos:station:USF.COMPS:ARP:1,2014-10-01T05:30:00Z,28.4330,-82.6670,10.0,3.01,94.36,5.19,'1111122,1111122,1111122' 
COMPS,ioos:station:USF.COMPS:ARP:1,2014-10-01T05:36:00Z,28.4330,-82.6670,10.0,3.32,86.47,5.39,'1111122,1111122,1111122' 
COMPS,ioos:station:USF.COMPS:ARP:1,2014-10-01T05:42:00Z,28.4330,-82.6670,10.0,2.98,91.19,4.21,'1111122,1111122,1111122' 
COMPS,ioos:station:USF.COMPS:ARP:1,2014-10-01T05:48:00Z,28.4330,-82.6670,10.0,3.1,90.33,5.19,'1111122,1111122,1111122' 
COMPS,ioos:station:USF.COMPS:ARP:1,2014-10-01T05:54:00Z,28.4330,-82.6670,10.0,3.07,96.28,5.29,'1111122,1111122,1111122' 
COMPS,ioos:station:USF.COMPS:ARP:1,2014-10-01T06:00:00Z,28.4330,-82.6670,10.0,3.33,96.48,4.9,'1111122,1111122,1111122' 
COMPS,ioos:station:USF.COMPS:ARP:1,2014-10-01T06:06:00Z,28.4330,-82.6670,10.0,3.29,98.8,4.9,'1111122,1111122,1111122' 
COMPS,ioos:station:USF.COMPS:ARP:1,2014-10-01T06:12:00Z,28.4330,-82.6670,10.0,3.07,91.9,5.29,'1111122,1111122,1111122' 
COMPS,ioos:station:USF.COMPS:ARP:1,2014-10-01T06:18:00Z,28.4330,-82.6670,10.0,2.97,100.62,4.31,'1111122,1111122,1111122' 
COMPS,ioos:station:USF.COMPS:ARP:1,2014-10-01T06:24:00Z,28.4330,-82.6670,10.0,3.31,102.11,4.8,'1111122,1111122,1111122' 
COMPS,ioos:station:USF.COMPS:ARP:1,2014-10-01T06:30:00Z,28.4330,-82.6670,10.0,3.07,94.71,4.6,'1111122,1111122,1111122' 
COMPS,ioos:station:USF.COMPS:ARP:1,2014-10-01T06:36:00Z,28.4330,-82.6670,10.0,3.52,90.33,5.68,'1111122,1111122,1111122' 
COMPS,ioos:station:USF.COMPS:ARP:1,2014-10-01T06:42:00Z,28.4330,-82.6670,10.0,3.49,89.85,5.39,'1111122,1111122,1111122' 
COMPS,ioos:station:USF.COMPS:ARP:1,2014-10-01T06:48:00Z,28.4330,-82.6670,10.0,3.71,89.49,5.58,'1111122,1111122,1111122' 
COMPS,ioos:station:USF.COMPS:ARP:1,2014-10-01T06:54:00Z,28.4330,-82.6670,10.0,3.22,90.65,5.68,'1111122,1111122,1111122' 
COMPS,ioos:station:USF.COMPS:ARP:1,2014-10-01T07:00:00Z,28.4330,-82.6670,10.0,3.03,89.71,5.19,'1111122,1111122,1111122' 
COMPS,ioos:station:USF.COMPS:ARP:1,2014-10-01T07:06:00Z,28.4330,-82.6670,10.0,3.43,83.7,4.99,'1111122,1111122,1111122' 
COMPS,ioos:station:USF.COMPS:ARP:1,2014-10-01T07:12:00Z,28.4330,-82.6670,10.0,3.18,85.49,4.6,'1111122,1111122,1111122' 
COMPS,ioos:station:USF.COMPS:ARP:1,2014-10-01T07:18:00Z,28.4330,-82.6670,10.0,2.8,87.35,4.21,'1111122,1111122,1111122' 
COMPS,ioos:station:USF.COMPS:ARP:1,2014-10-01T07:24:00Z,28.4330,-82.6670,10.0,2.52,86.05,3.33,'1111122,1111122,1111122' 
COMPS,ioos:station:USF.COMPS:ARP:1,2014-10-01T07:30:00Z,28.4330,-82.6670,10.0,3.1,85.57,4.31,'1111122,1111122,1111122' 
COMPS,ioos:station:USF.COMPS:ARP:1,2014-10-01T07:36:00Z,28.4330,-82.6670,10.0,3.27,80.33,4.21,'1111122,1111122,1111122' 
COMPS,ioos:station:USF.COMPS:ARP:1,2014-10-01T07:42:00Z,28.4330,-82.6670,10.0,3.58,75.83,5.19,'1111122,1111122,1111122' 
COMPS,ioos:station:USF.COMPS:ARP:1,2014-10-01T07:48:00Z,28.4330,-82.6670,10.0,3.5,82.56,6.56,'1111122,1111122,1111122' 
COMPS,ioos:station:USF.COMPS:ARP:1,2014-10-01T07:54:00Z,28.4330,-82.6670,10.0,2.99,85.69,4.5,'1111122,1111122,1111122' 
COMPS,ioos:station:USF.COMPS:ARP:1,2014-10-01T08:00:00Z,28.4330,-82.6670,10.0,3.2,81.9,5.29,'1111122,1111122,1111122' 
COMPS,ioos:station:USF.COMPS:ARP:1,2014-10-01T08:06:00Z,28.4330,-82.6670,10.0,3.24,84.69,4.99,'1111122,1111122,1111122' 
COMPS,ioos:station:USF.COMPS:ARP:1,2014-10-01T08:12:00Z,28.4330,-82.6670,10.0,3.03,84.71,4.11,'1111122,1111122,1111122' 
COMPS,ioos:station:USF.COMPS:ARP:1,2014-10-01T08:18:00Z,28.4330,-82.6670,10.0,3.34,86.14,4.99,'1111122,1111122,1111122' 
COMPS,ioos:station:USF.COMPS:ARP:1,2014-10-01T08:24:00Z,28.4330,-82.6670,10.0,2.98,86.79,3.82,'1111122,1111122,1111122' 
COMPS,ioos:station:USF.COMPS:ARP:1,2014-10-01T08:30:00Z,28.4330,-82.6670,10.0,3.22,85.96,4.41,'1111122,1111122,1111122' 
COMPS,ioos:station:USF.COMPS:ARP:1,2014-10-01T08:36:00Z,28.4330,-82.6670,10.0,3.05,84.56,4.41,'1111122,1111122,1111122' 
COMPS,ioos:station:USF.COMPS:ARP:1,2014-10-01T08:42:00Z,28.4330,-82.6670,10.0,3.18,86.57,4.41,'1111122,1111122,1111122' 
COMPS,ioos:station:USF.COMPS:ARP:1,2014-10-01T08:48:00Z,28.4330,-82.6670,10.0,2.65,92.76,4.21,'1111122,1111122,1111122' 
COMPS,ioos:station:USF.COMPS:ARP:1,2014-10-01T08:54:00Z,28.4330,-82.6670,10.0,2.6,89.51,3.33,'1111122,1111122,1111122' 
COMPS,ioos:station:USF.COMPS:ARP:1,2014-10-01T09:00:00Z,28.4330,-82.6670,10.0,2.82,85.53,4.41,'1111122,1111122,1111122' 
COMPS,ioos:station:USF.COMPS:ARP:1,2014-10-01T09:06:00Z,28.4330,-82.6670,10.0,2.83,84.4,3.91,'1111122,1111122,1111122' 
COMPS,ioos:station:USF.COMPS:ARP:1,2014-10-01T09:12:00Z,28.4330,-82.6670,10.0,3.12,83.23,4.41,'1111122,1111122,1111122' 
COMPS,ioos:station:USF.COMPS:ARP:1,2014-10-01T09:18:00Z,28.4330,-82.6670,10.0,2.63,84.74,3.72,'1111122,1111122,1111122' 
COMPS,ioos:station:USF.COMPS:ARP:1,2014-10-01T09:24:00Z,28.4330,-82.6670,10.0,2.45,87.51,4.41,'1111122,1111122,1111122' 
COMPS,ioos:station:USF.COMPS:ARP:1,2014-10-01T09:30:00Z,28.4330,-82.6670,10.0,2.67,88.87,4.8,'1111122,1111122,1111122' 
COMPS,ioos:station:USF.COMPS:ARP:1,2014-10-01T09:36:00Z,28.4330,-82.6670,10.0,2.73,88.02,4.01,'1111122,1111122,1111122' 
COMPS,ioos:station:USF.COMPS:ARP:1,2014-10-01T09:42:00Z,28.4330,-82.6670,10.0,3.08,85.41,4.7,'1111122,1111122,1111122' 
COMPS,ioos:station:USF.COMPS:ARP:1,2014-10-01T09:48:00Z,28.4330,-82.6670,10.0,2.75,82.21,4.11,'1111122,1111122,1111122' 
COMPS,ioos:station:USF.COMPS:ARP:1,2014-10-01T09:54:00Z,28.4330,-82.6670,10.0,2.61,80.97,3.82,'1111122,1111122,1111122' 
COMPS,ioos:station:USF.COMPS:ARP:1,2014-10-01T10:00:00Z,28.4330,-82.6670,10.0,2.81,75.27,4.21,'1111122,1111122,1111122' 
COMPS,ioos:station:USF.COMPS:ARP:1,2014-10-01T10:06:00Z,28.4330,-82.6670,10.0,2.47,79.52,4.21,'1111122,1111122,1111122' 
COMPS,ioos:station:USF.COMPS:ARP:1,2014-10-01T10:12:00Z,28.4330,-82.6670,10.0,2.5,80.94,3.33,'1111122,1111122,1111122' 
COMPS,ioos:station:USF.COMPS:ARP:1,2014-10-01T10:18:00Z,28.4330,-82.6670,10.0,2.41,82.31,3.33,'1111122,1111122,1111122' 
COMPS,ioos:station:USF.COMPS:ARP:1,2014-10-01T10:24:00Z,28.4330,-82.6670,10.0,2.16,86.26,3.33,'1111122,1111122,1111122' 
COMPS,ioos:station:USF.COMPS:ARP:1,2014-10-01T10:30:00Z,28.4330,-82.6670,10.0,2.08,82.94,3.03,'1111122,1111122,1111122' 
COMPS,ioos:station:USF.COMPS:ARP:1,2014-10-01T10:36:00Z,28.4330,-82.6670,10.0,2.25,83.23,3.03,'1111122,1111122,1111122' 
COMPS,ioos:station:USF.COMPS:ARP:1,2014-10-01T10:42:00Z,28.4330,-82.6670,10.0,1.93,84.7,2.84,'1111122,1111122,1111122' 
COMPS,ioos:station:USF.COMPS:ARP:1,2014-10-01T10:48:00Z,28.4330,-82.6670,10.0,1.61,86.18,2.25,'1111122,1111122,1111122' 
COMPS,ioos:station:USF.COMPS:ARP:1,2014-10-01T10:54:00Z,28.4330,-82.6670,10.0,2.0,81.93,2.84,'1111122,1111122,1111122' 
COMPS,ioos:station:USF.COMPS:ARP:1,2014-10-01T11:00:00Z,28.4330,-82.6670,10.0,1.9,80.38,2.74,'1111122,1111122,1111122' 
COMPS,ioos:station:USF.COMPS:ARP:1,2014-10-01T11:06:00Z,28.4330,-82.6670,10.0,2.02,85.41,2.64,'1111122,1111122,1111122' 
COMPS,ioos:station:USF.COMPS:ARP:1,2014-10-01T11:12:00Z,28.4330,-82.6670,10.0,1.92,86.83,2.84,'1111122,1111122,1111122' 
COMPS,ioos:station:USF.COMPS:ARP:1,2014-10-01T11:18:00Z,28.4330,-82.6670,10.0,2.13,86.22,3.33,'1111122,1111122,1111122' 
COMPS,ioos:station:USF.COMPS:ARP:1,2014-10-01T11:24:00Z,28.4330,-82.6670,10.0,1.94,90.11,2.84,'1111122,1111122,1111122' 
COMPS,ioos:station:USF.COMPS:ARP:1,2014-10-01T11:30:00Z,28.4330,-82.6670,10.0,2.0,79.44,3.13,'1111122,1111122,1111122' 
COMPS,ioos:station:USF.COMPS:ARP:1,2014-10-01T11:36:00Z,28.4330,-82.6670,10.0,1.7,79.3,2.64,'1111122,1111122,1111122' 
COMPS,ioos:station:USF.COMPS:ARP:1,2014-10-01T11:42:00Z,28.4330,-82.6670,10.0,2.1,86.28,3.13,'1111122,1111122,1111122' 
COMPS,ioos:station:USF.COMPS:ARP:1,2014-10-01T11:48:00Z,28.4330,-82.6670,10.0,1.76,85.45,2.54,'1111122,1111122,1111122' 
COMPS,ioos:station:USF.COMPS:ARP:1,2014-10-01T11:54:00Z,28.4330,-82.6670,10.0,1.97,84.98,2.84,'1111122,1111122,1111122' 
COMPS,ioos:station:USF.COMPS:ARP:1,2014-10-01T12:00:00Z,28.4330,-82.6670,10.0,1.85,90.16,2.54,'1111122,1111122,1111122' 
COMPS,ioos:station:USF.COMPS:ARP:1,2014-10-01T12:06:00Z,28.4330,-82.6670,10.0,1.62,90.8,2.35,'1111122,1111122,1111122' 
COMPS,ioos:station:USF.COMPS:ARP:1,2014-10-01T12:12:00Z,28.4330,-82.6670,10.0,1.93,99.42,2.93,'1111122,1111122,1111122' 
COMPS,ioos:station:USF.COMPS:ARP:1,2014-10-01T12:18:00Z,28.4330,-82.6670,10.0,2.08,87.79,3.23,'1111122,1111122,1111122' 
COMPS,ioos:station:USF.COMPS:ARP:1,2014-10-01T12:24:00Z,28.4330,-82.6670,10.0,2.51,84.03,4.31,'1111122,1111122,1111122' 
COMPS,ioos:station:USF.COMPS:ARP:1,2014-10-01T12:30:00Z,28.4330,-82.6670,10.0,2.45,91.19,3.82,'1111122,1111122,1111122' 
COMPS,ioos:station:USF.COMPS:ARP:1,2014-10-01T12:36:00Z,28.4330,-82.6670,10.0,2.61,86.38,4.21,'1111122,1111122,1111122' 
COMPS,ioos:station:USF.COMPS:ARP:1,2014-10-01T12:42:00Z,28.4330,-82.6670,10.0,2.39,87.71,3.23,'1111122,1111122,1111122' 
COMPS,ioos:station:USF.COMPS:ARP:1,2014-10-01T12:48:00Z,28.4330,-82.6670,10.0,2.98,77.82,4.41,'1111122,1111122,1111122' 
COMPS,ioos:station:USF.COMPS:ARP:1,2014-10-01T12:54:00Z,28.4330,-82.6670,10.0,2.74,76.21,4.8,'1111122,1111122,1111122' 
COMPS,ioos:station:USF.COMPS:ARP:1,2014-10-01T13:00:00Z,28.4330,-82.6670,10.0,3.31,70.68,4.8,'1111122,1111122,1111122' 
COMPS,ioos:station:USF.COMPS:ARP:1,2014-10-01T13:06:00Z,28.4330,-82.6670,10.0,3.34,73.77,4.6,'1111122,1111122,1111122' 
COMPS,ioos:station:USF.COMPS:ARP:1,2014-10-01T13:12:00Z,28.4330,-82.6670,10.0,2.72,80.93,4.11,'1111122,1111122,1111122' 
COMPS,ioos:station:USF.COMPS:ARP:1,2014-10-01T13:18:00Z,28.4330,-82.6670,10.0,2.7,70.71,4.41,'1111122,1111122,1111122' 
COMPS,ioos:station:USF.COMPS:ARP:1,2014-10-01T13:24:00Z,28.4330,-82.6670,10.0,2.83,65.63,3.91,'1111122,1111122,1111122' 
COMPS,ioos:station:USF.COMPS:ARP:1,2014-10-01T13:30:00Z,28.4330,-82.6670,10.0,2.21,70.65,3.42,'1111122,1111122,1111122' 
COMPS,ioos:station:USF.COMPS:ARP:1,2014-10-01T13:36:00Z,28.4330,-82.6670,10.0,2.06,73.9,3.91,'1111122,1111122,1111122' 
COMPS,ioos:station:USF.COMPS:ARP:1,2014-10-01T13:42:00Z,28.4330,-82.6670,10.0,1.89,67.86,2.84,'1111122,1111122,1111122' 
COMPS,ioos:station:USF.COMPS:ARP:1,2014-10-01T13:48:00Z,28.4330,-82.6670,10.0,1.9,78.3,2.54,'1111122,1111122,1111122' 
COMPS,ioos:station:USF.COMPS:ARP:1,2014-10-01T13:54:00Z,28.4330,-82.6670,10.0,1.88,76.27,2.54,'1111122,1111122,1111122' 
COMPS,ioos:station:USF.COMPS:ARP:1,2014-10-01T14:00:00Z,28.4330,-82.6670,10.0,1.75,77.38,3.52,'1111122,1111122,1111122' 
COMPS,ioos:station:USF.COMPS:ARP:1,2014-10-01T14:06:00Z,28.4330,-82.6670,10.0,2.02,78.75,3.52,'1111122,1111122,1111122' 
COMPS,ioos:station:USF.COMPS:ARP:1,2014-10-01T14:12:00Z,28.4330,-82.6670,10.0,2.63,78.57,3.91,'1111122,1111122,1111122' 
COMPS,ioos:station:USF.COMPS:ARP:1,2014-10-01T14:18:00Z,28.4330,-82.6670,10.0,3.04,72.55,3.91,'1111122,1111122,1111122' 
COMPS,ioos:station:USF.COMPS:ARP:1,2014-10-01T14:24:00Z,28.4330,-82.6670,10.0,1.84,92.79,2.84,'1111122,1111122,1111122' 
COMPS,ioos:station:USF.COMPS:ARP:1,2014-10-01T14:30:00Z,28.4330,-82.6670,10.0,1.57,102.25,2.64,'1111122,1111122,1111122' 
COMPS,ioos:station:USF.COMPS:ARP:1,2014-10-01T14:36:00Z,28.4330,-82.6670,10.0,1.93,105.55,3.62,'1111122,1111122,1111122' 
COMPS,ioos:station:USF.COMPS:ARP:1,2014-10-01T14:42:00Z,28.4330,-82.6670,10.0,1.93,96.93,2.64,'1111122,1111122,1111122' 
COMPS,ioos:station:USF.COMPS:ARP:1,2014-10-01T14:48:00Z,28.4330,-82.6670,10.0,2.01,91.33,3.13,'1111122,1111122,1111122' 
COMPS,ioos:station:USF.COMPS:ARP:1,2014-10-01T14:54:00Z,28.4330,-82.6670,10.0,2.33,81.05,3.42,'1111122,1111122,1111122' 
COMPS,ioos:station:USF.COMPS:ARP:1,2014-10-01T15:00:00Z,28.4330,-82.6670,10.0,2.13,86.0,2.84,'1111122,1111122,1111122' 
COMPS,ioos:station:USF.COMPS:ARP:1,2014-10-01T15:06:00Z,28.4330,-82.6670,10.0,2.16,91.45,3.33,'1111122,1111122,1111122' 
COMPS,ioos:station:USF.COMPS:ARP:1,2014-10-01T15:12:00Z,28.4330,-82.6670,10.0,2.43,91.25,4.01,'1111122,1111122,1111122' 
COMPS,ioos:station:USF.COMPS:ARP:1,2014-10-01T15:18:00Z,28.4330,-82.6670,10.0,2.58,98.46,3.72,'1111122,1111122,1111122' 
COMPS,ioos:station:USF.COMPS:ARP:1,2014-10-01T15:24:00Z,28.4330,-82.6670,10.0,2.13,101.44,3.33,'1111122,1111122,1111122' 
COMPS,ioos:station:USF.COMPS:ARP:1,2014-10-01T15:30:00Z,28.4330,-82.6670,10.0,1.96,113.45,3.23,'1111122,1111122,1111122' 
COMPS,ioos:station:USF.COMPS:ARP:1,2014-10-01T15:36:00Z,28.4330,-82.6670,10.0,1.78,89.46,3.03,'1111122,1111122,1111122' 
COMPS,ioos:station:USF.COMPS:ARP:1,2014-10-01T15:42:00Z,28.4330,-82.6670,10.0,1.76,100.14,2.93,'1111122,1111122,1111122' 
COMPS,ioos:station:USF.COMPS:ARP:1,2014-10-01T15:48:00Z,28.4330,-82.6670,10.0,1.11,103.36,2.05,'1111122,1111122,1111122' 
COMPS,ioos:station:USF.COMPS:ARP:1,2014-10-01T15:54:00Z,28.4330,-82.6670,10.0,1.19,107.44,1.86,'1111122,1111122,1111122' 
COMPS,ioos:station:USF.COMPS:ARP:1,2014-10-01T16:00:00Z,28.4330,-82.6670,10.0,1.03,106.1,1.76,'1111122,1111122,1111122' 
COMPS,ioos:station:USF.COMPS:ARP:1,2014-10-01T16:06:00Z,28.4330,-82.6670,10.0,1.14,118.6,2.05,'1111122,1111122,1111122' 
COMPS,ioos:station:USF.COMPS:ARP:1,2014-10-01T16:12:00Z,28.4330,-82.6670,10.0,1.06,134.0,1.95,'1111122,1111122,1111122' 
COMPS,ioos:station:USF.COMPS:ARP:1,2014-10-01T16:18:00Z,28.4330,-82.6670,10.0,0.7,113.23,1.46,'1111122,1111122,1111122' 
COMPS,ioos:station:USF.COMPS:ARP:1,2014-10-01T16:24:00Z,28.4330,-82.6670,10.0,1.61,81.03,2.15,'1111122,1111122,1111122' 
COMPS,ioos:station:USF.COMPS:ARP:1,2014-10-01T16:30:00Z,28.4330,-82.6670,10.0,1.84,91.93,2.64,'1111122,1111122,1111122' 
COMPS,ioos:station:USF.COMPS:ARP:1,2014-10-01T16:36:00Z,28.4330,-82.6670,10.0,0.92,81.09,2.64,'1111122,1111122,1111122' 
COMPS,ioos:station:USF.COMPS:ARP:1,2014-10-01T16:42:00Z,28.4330,-82.6670,10.0,1.33,92.65,1.95,'1111122,1111122,1111122' 
COMPS,ioos:station:USF.COMPS:ARP:1,2014-10-01T16:48:00Z,28.4330,-82.6670,10.0,0.75,76.25,1.66,'1111122,1111122,1111122' 
COMPS,ioos:station:USF.COMPS:ARP:1,2014-10-01T16:54:00Z,28.4330,-82.6670,10.0,1.03,281.61,1.86,'1111122,1111122,1111122' 
COMPS,ioos:station:USF.COMPS:ARP:1,2014-10-01T17:00:00Z,28.4330,-82.6670,10.0,0.89,30.63,1.56,'1111122,1111122,1111122' 
COMPS,ioos:station:USF.COMPS:ARP:1,2014-10-01T17:06:00Z,28.4330,-82.6670,10.0,0.46,354.45,1.46,'1111122,1111122,1111122' 
COMPS,ioos:station:USF.COMPS:ARP:1,2014-10-01T17:12:00Z,28.4330,-82.6670,10.0,1.95,307.66,2.74,'1111122,1111122,1111122' 
COMPS,ioos:station:USF.COMPS:ARP:1,2014-10-01T17:18:00Z,28.4330,-82.6670,10.0,1.9,300.26,2.45,'1111122,1111122,1111122' 
COMPS,ioos:station:USF.COMPS:ARP:1,2014-10-01T17:24:00Z,28.4330,-82.6670,10.0,2.23,309.85,3.23,'1111122,1111122,1111122' 
COMPS,ioos:station:USF.COMPS:ARP:1,2014-10-01T17:30:00Z,28.4330,-82.6670,10.0,2.55,305.75,3.23,'1111122,1111122,1111122' 
COMPS,ioos:station:USF.COMPS:ARP:1,2014-10-01T17:36:00Z,28.4330,-82.6670,10.0,3.21,305.1,4.01,'1111122,1111122,1111122' 
COMPS,ioos:station:USF.COMPS:ARP:1,2014-10-01T17:42:00Z,28.4330,-82.6670,10.0,3.29,303.46,4.01,'1111122,1111122,1111122' 
COMPS,ioos:station:USF.COMPS:ARP:1,2014-10-01T17:48:00Z,28.4330,-82.6670,10.0,3.5,307.2,4.31,'1111122,1111122,1111122' 
COMPS,ioos:station:USF.COMPS:ARP:1,2014-10-01T17:54:00Z,28.4330,-82.6670,10.0,3.4,304.81,4.01,'1111122,1111122,1111122' 
COMPS,ioos:station:USF.COMPS:ARP:1,2014-10-01T18:00:00Z,28.4330,-82.6670,10.0,3.27,302.18,3.91,'1111122,1111122,1111122' 
COMPS,ioos:station:USF.COMPS:ARP:1,2014-10-01T18:06:00Z,28.4330,-82.6670,10.0,3.27,302.72,3.82,'1111122,1111122,1111122' 
COMPS,ioos:station:USF.COMPS:ARP:1,2014-10-01T18:12:00Z,28.4330,-82.6670,10.0,3.42,301.6,4.01,'1111122,1111122,1111122' 
COMPS,ioos:station:USF.COMPS:ARP:1,2014-10-01T18:18:00Z,28.4330,-82.6670,10.0,3.76,303.42,4.5,'1111122,1111122,1111122' 
COMPS,ioos:station:USF.COMPS:ARP:1,2014-10-01T18:24:00Z,28.4330,-82.6670,10.0,3.9,306.18,4.6,'1111122,1111122,1111122' 
COMPS,ioos:station:USF.COMPS:ARP:1,2014-10-01T18:30:00Z,28.4330,-82.6670,10.0,3.91,306.2,4.9,'1111122,1111122,1111122' 
COMPS,ioos:station:USF.COMPS:ARP:1,2014-10-01T18:36:00Z,28.4330,-82.6670,10.0,3.42,305.08,4.31,'1111122,1111122,1111122' 
COMPS,ioos:station:USF.COMPS:ARP:1,2014-10-01T18:42:00Z,28.4330,-82.6670,10.0,3.2,305.9,4.31,'1111122,1111122,1111122' 
COMPS,ioos:station:USF.COMPS:ARP:1,2014-10-01T18:48:00Z,28.4330,-82.6670,10.0,3.09,304.03,4.11,'1111122,1111122,1111122' 
COMPS,ioos:station:USF.COMPS:ARP:1,2014-10-01T18:54:00Z,28.4330,-82.6670,10.0,3.17,304.73,4.11,'1111122,1111122,1111122' 
COMPS,ioos:station:USF.COMPS:ARP:1,2014-10-01T19:00:00Z,28.4330,-82.6670,10.0,3.04,305.91,4.01,'1111122,1111122,1111122' 
COMPS,ioos:station:USF.COMPS:ARP:1,2014-10-01T19:06:00Z,28.4330,-82.6670,10.0,2.99,310.16,4.41,'1111122,1111122,1111122' 
COMPS,ioos:station:USF.COMPS:ARP:1,2014-10-01T19:12:00Z,28.4330,-82.6670,10.0,3.69,305.72,4.99,'1111122,1111122,1111122' 
COMPS,ioos:station:USF.COMPS:ARP:1,2014-10-01T19:18:00Z,28.4330,-82.6670,10.0,3.97,307.59,5.39,'1111122,1111122,1111122' 
COMPS,ioos:station:USF.COMPS:ARP:1,2014-10-01T19:24:00Z,28.4330,-82.6670,10.0,3.93,308.49,5.19,'1111122,1111122,1111122' 
COMPS,ioos:station:USF.COMPS:ARP:1,2014-10-01T19:30:00Z,28.4330,-82.6670,10.0,4.34,304.39,5.68,'1111122,1111122,1111122' 
COMPS,ioos:station:USF.COMPS:ARP:1,2014-10-01T19:36:00Z,28.4330,-82.6670,10.0,4.48,307.65,5.19,'1111122,1111122,1111122' 